Flag for Brazil Weather past 2 weeks in Boa Vista, Roraima, Brazil

Now
79 °F

Passing clouds.


Feels Like: 82 °F
Forecast: 75 / 83 °F
Wind: 7 mph from East

Location: Boa Vista Aeropor-To


UV Index: 3 (Moderate)

Visibility: N/A


Pressure: 29.83 "Hg

Humidity: 79%

Dew point: 72 °F

Location of Boa VistaLocation

Historic Weather in Boa Vista

°F

Boa Vista temperature yesterday

Maximum temperature yesterday: 91 °F (at 3:00 PM)
Minimum temperature yesterday: 77 °F (at 1:00 AM)
Average temperature yesterday: 84 °F

Past Weeks' High & Low Weather Summary

 TemperatureHumidityPressure
High97 °F (Apr 5, 4:00 PM)94% (Apr 1, 6:00 AM)30.01 "Hg (Apr 1, 6:00 AM)
Low73 °F (Apr 1, 6:00 AM)28% (Apr 10, 3:00 PM)29.71 "Hg (Apr 13, 4:00 PM)
Average85 °F57%29.88 "Hg
* Reported Apr 1 4:00 AM — Apr 16 4:00 AM, Boa Vista, Weather by CustomWeather, © 2014

Note: Actual official high and low records may vary slightly from our data, if they occured in-between our weather recording intervals... More about our weather records

Advertising

Historic Weather Conditions — Data for Previous 24 hours

 ConditionsComfort  
Time TempWeatherWind HumidityBarometerVisibility
4:00 AM
Apr 16
79 °FPassing clouds.7 mph79%29.83 "HgN/A
3:00 AM81 °FPassing clouds.6 mph79%29.83 "HgN/A
2:00 AM81 °FPassing clouds.5 mph79%29.83 "HgN/A
1:00 AM82 °FPartly cloudy.8 mph70%29.83 "HgN/A
12:00 AM81 °FPartly cloudy.5 mph79%29.86 "HgN/A
11:00 PM
Apr 15
82 °FPassing clouds.3 mph74%29.86 "HgN/A
10:00 PM84 °FPassing clouds.3 mph70%29.86 "HgN/A
9:00 PM84 °FPassing clouds.6 mph70%29.83 "HgN/A
7:00 PM90 °FPassing clouds.6 mph52%29.77 "HgN/A
6:00 PM90 °FPassing clouds.5 mph52%29.74 "HgN/A
5:00 PM91 °FScattered clouds.6 mph49%29.71 "HgN/A
4:00 PM91 °FPartly sunny.9 mph49%29.71 "HgN/A
3:00 PM91 °FScattered clouds.7 mph49%29.74 "HgN/A
2:00 PM90 °FScattered clouds.7 mph52%29.77 "HgN/A
1:00 PM86 °FPartly sunny.9 mph59%29.83 "HgN/A
12:00 PM86 °FPartly sunny.10 mph62%29.86 "HgN/A
11:00 AM90 °FPartly sunny.13 mph49%29.89 "HgN/A
10:00 AM84 °FPartly sunny.12 mph62%29.89 "HgN/A
9:00 AM82 °FPartly sunny.8 mph70%29.92 "HgN/A
8:00 AM81 °FBroken clouds.3 mph79%29.89 "HgN/A
7:00 AM77 °FPartly sunny.5 mph83%29.89 "HgN/A
6:00 AM77 °FScattered clouds.2 mph83%29.86 "HgN/A
5:00 AM77 °FPassing clouds.6 mph83%29.86 "HgN/A
4:00 AM77 °FPartly cloudy.2 mph83%29.86 "HgN/A
Weather by CustomWeather, © 2014

See weather overview